Regional Weather Roundup
Issued by NWS

Home | Current Version | Previous Version | Graphics & Text | Print | Product List | Glossary Off
Versions: 1 2 3 4 5 6 7 8 9 10 11 12 13 14 15 16 17 18 19 20 21 22 23 24 25 26 27 28 29 30 31 32 33 34 35 36 37 38 39 40 41 42 43 44 45 46 47 48 49 50

279
ASUS43 KMKX 161400
RWRWI

WISCONSIN REGIONAL WEATHER ROUNDUP
NATIONAL WEATHER SERVICE MILWAUKEE/SULLIVAN WI
900 AM CDT WED AUG 16 2017

NOTE: "FAIR" INDICATES FEW OR NO CLOUDS BELOW 12,000 FEET WITH NO
SIGNIFICANT WEATHER AND/OR OBSTRUCTIONS TO VISIBILITY.

WIZ001-002-006>008-014>016-023>028-161500-
NORTHWEST WISCONSIN

CITY           SKY/WX    TMP DP  RH WIND       PRES   REMARKS
SUPERIOR ARPT    N/A     63  60  90 E14       29.99S
ASHLAND        MOSUNNY   60  57  89 SE3       30.01F
HAYWARD        CLOUDY    65  58  78 SE5       30.00F
SIREN          CLOUDY    63  58  86 SE5       29.96F
CUMBERLAND     CLOUDY    61  59  94 SE7       29.98F
RICE LAKE      CLOUDY    65  61  86 SE9       29.99F
CHETEK         CLOUDY    65  61  89 SE10      29.99S
LADYSMITH      MOSUNNY   66  61  84 SE7       30.03S
EAU CLAIRE     NOT AVBL
MENOMONIE      RAIN      63  63 100 E6        29.97F
NEW RICHMOND   CLOUDY    64  62  96 SE7       29.96S
OSCEOLA        CLOUDY    64  64 100 SE8       29.97F
$$

WIZ003>005-009-010-017-018-161500-
NORTH CENTRAL WISCONSIN

CITY           SKY/WX    TMP DP  RH WIND       PRES   REMARKS
MANITOWISH WTR CLOUDY    61  61 100 SE6       30.06S
ARBOR VITAE    CLOUDY    62  59  90 SE7       30.06F
WOODRUFF       CLOUDY    62  59  90 SE7       30.06F
RHINELANDER    CLOUDY    62  60  93 SE7       30.07S
EAGLE RIVER    CLOUDY    59  58  96 S5        30.07F
LAND O LAKES   CLOUDY    60  56  87 S6        30.10S
PHILLIPS       CLOUDY    63  59  88 SE5       30.03S
TOMAHAWK         N/A     59  58  97 SE5       30.06S
MEDFORD        CLOUDY    61  59  92 E7        30.02F
MERRILL        NOT AVBL
$$

WIZ029-030-035-036-043>047-161500-
CENTRAL WISCONSIN

CITY           SKY/WX    TMP DP  RH WIND       PRES   REMARKS
WAUSAU         CLOUDY    62  60  93 E8        30.03S
MOSINEE        CLOUDY    63  63 100 E6        30.05F
MARSHFIELD     CLOUDY    64  59  83 SE15G21   30.00F
STEVENS POINT  CLOUDY    62  61  99 E10       30.04F
WAUPACA        CLOUDY    66  65  97 NE7       30.05S FOG
WAUTOMA        PTSUNNY   66  61  84 E7        30.02
WISC RAPIDS    MOSUNNY   67  61  81 SE10      30.03F
CAMP DOUGLAS   NOT AVBL
$$

WIZ011>013-019>022-031-037>040-048>050-161500-
NORTHEAST WISCONSIN

CITY           SKY/WX    TMP DP  RH WIND       PRES   REMARKS
ANTIGO         CLOUDY    60  59  98 SE8       30.08S
SHAWANO        CLOUDY    63  60  88 E9        30.06F
OCONTO         CLOUDY    65  60  85 NE6       30.06S
STURGEON BAY   CLOUDY    66  63  90 VRB5      30.07S
GREEN BAY      CLOUDY    67  65  93 NE10      30.05F
MANITOWOC      NOT AVBL
APPLETON       PTSUNNY   66  59  77 E8        30.03F
CLINTONVILLE   CLOUDY    63  61  94 E5        30.05F
OSHKOSH        PTSUNNY   68  61  78 E9        30.03F
$$

WIZ032>034-041-042-053>061-161500-
SOUTHWEST WISCONSIN

CITY           SKY/WX    TMP DP  RH WIND       PRES   REMARKS
LA CROSSE      PTSUNNY   71  59  65 SE9       29.96S
SPARTA         CLOUDY    67  58  74 E6        29.99S
VIROQUA        SUNNY     67  59  74 E10G17    29.98S
BOSCOBEL       MOSUNNY   72  58  61 E5        29.98S
PRAIRIE DU CHI MOSUNNY   67  59  75 E5        29.96S
PLATTEVILLE    SUNNY     66  65  95 E12       29.98F
$$

WIZ056-057-062-063-064-067-068-161500-
SOUTH CENTRAL WISCONSIN

CITY           SKY/WX    TMP DP  RH WIND       PRES   REMARKS
REEDSBURG      MOSUNNY   68  62  79 E6        30.00F
BARABOO/DELLS  SUNNY     67  59  76 E8        30.00F
LONE ROCK      SUNNY     69  62  78 E12       29.99S
MINERAL POINT  SUNNY     68  61  77 E10       29.99F
MADISON        PTSUNNY   68  61  78 SE7       30.01S
MIDDLETON      SUNNY     69  61  74 E12       30.02S
WATERTOWN      SUNNY     66  64  91 E8        30.02F
MONROE         CLOUDY    66  61  82 E7        30.00S
JANESVILLE     MOSUNNY   72  63  73 E8        30.00F
$$

WIZ051-052-058>065-066-070>072-161500-
SOUTHEAST WISCONSIN

CITY           SKY/WX    TMP DP  RH WIND       PRES   REMARKS
MILWAUKEE      MOSUNNY   73  65  75 E8        30.02F
WAUKESHA       SUNNY     68  63  83 E5        30.04F
MILWAUKEE/TIMM NOT AVBL
RACINE         SUNNY     73  66  78 E7        30.04S
KENOSHA        SUNNY     72  66  81 E9        30.02F
FOND DU LAC    MOSUNNY   69  59  70 E9        30.03F
SHEBOYGAN      CLOUDY    68  65  90 NE9       30.04F
WEST BEND      PTSUNNY   66  63  88 E7        30.04F
JUNEAU         MOSUNNY   65  61  87 NE5       30.04F
$$

LSZ147-162-161500-
LAKE SUPERIOR

STATION/POSITION TIME  TEMP    WIND        PRES    WAVE
                       AIR SEA DIR/SP/G            HT/PER
                 (UTC) (F)     (DEG/KT/KT) (MB)    (FT/S)
W MID LAKE BUOY  1250   61 60  120/ 10/ 12 1017.4F   1/ 3
DEVILS ISLAND    1300   61      70/ 10/ 11 1017.0F
SAXON HARBOR     1330   61        CALM     1016.3F
$$

LMZ867-665-643>646-161500-
LAKE MICHIGAN

STATION/POSITION TIME  TEMP    WIND        PRES    WAVE
                       AIR SEA DIR/SP/G            HT/PER
                 (UTC) (F)     (DEG/KT/KT) (MB)    (FT/S)
S GREEN BAY BUOY 1330   65 71   20/ 10/ 12 1017.8F
N MID LAKE BUOY  1250   66 67   80/  6/  8 1018.7S   1/ 3
NORTHPORT PIER   1340   65      20/  4/  8 1018.3S
KEWAUNEE LAKESHO 1330   67      10/  4/  8 1017.0R
SHEBOYGAN LAKESH 1300   67      30/  6/  7 1017.3R
PORT WASHINGTON  1340   71      40/  6/  7 1017.9S
ATWATER BUOY     1209   69 71   70/  6/  8 1017.0R
MILWAUKEE LAKESH 1330   70      40/  7/  8   N/A
S MID LAKE BUOY  1250   70 71   70/  4/  4 1016.8R   1/ 4
KENOSHA   LAKESH 1300   70      60/  7/  8 1016.6
$$

TC  - TEMPERATURE IN CELSIUS
VSB - VISIBILITY IN STATUTE MILES
WCI - WIND CHILL INDEX
HX  - HEAT INDEX





USA.gov is the U.S. government's official web portal to all federal, state and local government web resources and services.